Choma

operational
NORAD ID: 33315 Int'l Des: 2008-040 Owner: REYE Country: D
LEOCIRCULARRETROGRADESSO

About Choma

Description loading...

Live Position

Loading 3D Globe...

Upcoming Passes

Altitude History

Altitude vs Time

uPlot chart will show altitude changes over time

Two-Line Element Set

1 33315U 08040D 26020.05784396 .00002863 00000-0 19921-3 0 9993
2 33315 97.4011 56.1713 0010771 177.2106 182.9184 15.06195076943977
Epoch: Jan 20, 2026 • Age: 29 hours

Current Status

Altitude 561.4 km
Velocity 7.59 km/s
Sub-Earth Point 77.27°N, 165.22°E
Launch Date Aug 29, 2008
Age 17.3 years
Type other

Technical Details

Classification Payload
Mass 152.00 kg
Dry Mass 140.00 kg
Total Mass 152.00 kg
Length 1.00 m
Diameter 0.80 m
Span 1.00 m
Shape Hept Cyl
Manufacturer SSTL
Bus Type SSTL-150
Phase Status In Orbit
Owner/State REYE/D

Large Constellations

Loading constellations...